Location: Mahannah Oil Field
(37.4664°N, 96.6003°W)
Time: 14:34:03
(UTC+00:00)

Courier 1B - Pass Details

Date: 30 January 2021
Orbit: 962 x 1209 km, 28.3° (Epoch: 06 March)

Event Time Altitude Azimuth Distance (km) Brightness Sun altitude
Rises 06:20:44 0° 260° (W) 3,810 - -69.7°
Reaches altitude 10° 06:23:44 10° 252° (WSW) 2,817 - -69.8°
Maximum altitude 06:29:47 35° 189° (S) 1,547 - -70.0°
Drops below altitude 10° 06:35:37 10° 126° (SE) 2,703 - -70.1°
Sets 06:38:26 0° 117° (ESE) 3,636 - -70.1°
